| time (UTC) | temp F | wind direction | speed MPH | gust MPH | rain 1hr in | rain 24hr in | rain mn in | humidity % | barometer mb |
| 20260507013947 | 56 | 263 | 1.0 | 2.0 | 0.00 | 0.12 | 0.12 | 99 | 1010.4 |
| 20260507013444 | 56 | 313 | 1.0 | 3.0 | 0.00 | 0.12 | 0.12 | 99 | 1010.4 |
| 20260507012941 | 56 | 332 | 1.0 | 3.0 | 0.00 | 0.12 | 0.12 | 99 | 1010.6 |
| 20260507012437 | 56 | 330 | 0.0 | 2.0 | 0.00 | 0.12 | 0.12 | 99 | 1010.4 |
| 20260507011928 | 56 | 275 | 1.0 | 3.0 | 0.00 | 0.12 | 0.12 | 99 | 1010.2 |
| 20260507011425 | 56 | 340 | 3.0 | 5.0 | 0.00 | 0.12 | 0.12 | 99 | 1010.0 |
| 20260507010920 | 56 | 310 | 1.0 | 3.0 | 0.00 | 0.12 | 0.12 | 99 | 1010.0 |
| 20260507010415 | 56 | 299 | 1.0 | 2.0 | 0.00 | 0.12 | 0.12 | 99 | 1010.0 |
| 20260507005913 | 56 | 49 | 0.0 | 2.0 | 0.00 | 0.12 | 0.12 | 99 | 1010.3 |
| 20260507005409 | 56 | 327 | 2.0 | 3.0 | 0.00 | 0.12 | 0.12 | 99 | 1010.0 |
| 20260507004906 | 56 | 264 | 2.0 | 3.0 | 0.00 | 0.12 | 0.12 | 99 | 1010.2 |
| 20260507004403 | 56 | 162 | 2.0 | 2.0 | 0.00 | 0.12 | 0.12 | 99 | 1010.2 |
| 20260507003900 | 56 | 304 | 3.0 | 5.0 | 0.00 | 0.12 | 0.12 | 99 | 1010.0 |
| 20260507003355 | 56 | 127 | 1.0 | 1.0 | 0.00 | 0.12 | 0.12 | 99 | 1010.0 |
| 20260507002851 | 56 | 222 | 2.0 | 5.0 | 0.00 | 0.12 | 0.12 | 99 | 1010.2 |
| 20260507002347 | 56 | 181 | 2.0 | 5.0 | 0.00 | 0.12 | 0.12 | 99 | 1010.2 |
| 20260507001844 | 56 | 332 | 1.0 | 2.0 | 0.00 | 0.12 | 0.12 | 99 | 1010.3 |
| 20260507001341 | 56 | 328 | 1.0 | 2.0 | 0.00 | 0.12 | 0.12 | 99 | 1010.3 |
| 20260507000838 | 56 | 312 | 1.0 | 3.0 | 0.00 | 0.12 | 0.12 | 99 | 1010.2 |
| 20260507000335 | 56 | 309 | 3.0 | 7.0 | 0.00 | 0.12 | 0.12 | 99 | 1010.1 |
| 20260506235830 | 56 | 215 | 2.0 | 3.0 | 0.00 | 0.12 | 0.12 | 99 | 1010.2 |
| 20260506235327 | 56 | 321 | 3.0 | 5.0 | 0.00 | 0.12 | 0.12 | 99 | 1010.1 |
| 20260506234823 | 56 | 319 | 1.0 | 3.0 | 0.00 | 0.12 | 0.12 | 99 | 1010.0 |
| 20260506234321 | 56 | 290 | 1.0 | 3.0 | 0.00 | 0.12 | 0.12 | 99 | 1009.9 |
| 20260506233818 | 56 | 218 | 1.0 | 3.0 | 0.00 | 0.12 | 0.12 | 99 | 1010.0 |
| 20260506233314 | 56 | 310 | 2.0 | 3.0 | 0.00 | 0.12 | 0.12 | 99 | 1010.0 |
| 20260506232811 | 56 | 187 | 1.0 | 3.0 | 0.00 | 0.12 | 0.12 | 99 | 1010.0 |
| 20260506232306 | 56 | 238 | 4.0 | 5.0 | 0.00 | 0.12 | 0.12 | 99 | 1009.9 |
| 20260506231803 | 56 | 239 | 2.0 | 3.0 | 0.00 | 0.12 | 0.12 | 99 | 1009.9 |
| 20260506231301 | 56 | 314 | 2.0 | 2.0 | 0.00 | 0.12 | 0.12 | 99 | 1010.0 |
| 20260506230758 | 56 | 194 | 2.0 | 8.0 | 0.00 | 0.12 | 0.12 | 99 | 1009.9 |
| 20260506230255 | 56 | 236 | 1.0 | 2.0 | 0.00 | 0.12 | 0.12 | 99 | 1009.9 |
| 20260506225751 | 56 | 231 | 2.0 | 3.0 | 0.00 | 0.12 | 0.12 | 99 | 1009.9 |
| 20260506225248 | 56 | 252 | 1.0 | 2.0 | 0.00 | 0.12 | 0.12 | 99 | 1009.6 |
| 20260506224745 | 55 | 212 | 3.0 | 6.0 | 0.00 | 0.12 | 0.12 | 99 | 1009.6 |
| 20260506224242 | 55 | 208 | 2.0 | 7.0 | 0.00 | 0.12 | 0.12 | 99 | 1009.7 |
| 20260506223732 | 55 | 345 | 1.0 | 3.0 | 0.00 | 0.12 | 0.12 | 99 | 1009.7 |
| 20260506223228 | 56 | 194 | 2.0 | 2.0 | 0.00 | 0.12 | 0.12 | 99 | 1009.7 |
| 20260506222726 | 56 | 312 | 2.0 | 2.0 | 0.00 | 0.12 | 0.12 | 99 | 1009.7 |
| 20260506222221 | 56 | 320 | 1.0 | 1.0 | 0.00 | 0.12 | 0.12 | 99 | 1009.6 |
| 20260506221719 | 55 | 240 | 2.0 | 3.0 | 0.00 | 0.12 | 0.12 | 99 | 1009.7 |
| 20260506221217 | 55 | 310 | 1.0 | 1.0 | 0.00 | 0.12 | 0.12 | 99 | 1009.6 |
| 20260506220714 | 55 | 214 | 2.0 | 5.0 | 0.00 | 0.12 | 0.12 | 99 | 1009.8 |
| 20260506220208 | 56 | 116 | 2.0 | 7.0 | 0.00 | 0.12 | 0.12 | 98 | 1009.8 |
| 20260506215705 | 56 | 212 | 3.0 | 6.0 | 0.00 | 0.12 | 0.12 | 98 | 1009.8 |
| 20260506215201 | 56 | 237 | 2.0 | 2.0 | 0.00 | 0.12 | 0.12 | 98 | 1009.9 |
| 20260506214658 | 56 | 254 | 2.0 | 3.0 | 0.00 | 0.12 | 0.12 | 98 | 1009.7 |
| 20260506214155 | 56 | 284 | 2.0 | 6.0 | 0.00 | 0.12 | 0.12 | 98 | 1009.8 |
| 20260506213654 | 56 | 218 | 2.0 | 8.0 | 0.00 | 0.12 | 0.12 | 98 | 1009.7 |
| 20260506213150 | 56 | 240 | 2.0 | 2.0 | 0.00 | 0.12 | 0.12 | 98 | 1009.6 |
| 20260506212647 | 56 | 242 | 3.0 | 3.0 | 0.05 | 0.12 | 0.12 | 98 | 1009.7 |
| 20260506212142 | 56 | 305 | 3.0 | 7.0 | 0.05 | 0.12 | 0.12 | 98 | 1009.9 |
| 20260506211638 | 56 | 334 | 1.0 | 5.0 | 0.00 | 0.11 | 0.11 | 98 | 1009.8 |
| 20260506211135 | 56 | 196 | 2.0 | 5.0 | 0.07 | 0.11 | 0.11 | 98 | 1009.9 |
| 20260506210632 | 56 | 300 | 1.0 | 3.0 | 0.07 | 0.11 | 0.11 | 98 | 1010.0 |
| 20260506210129 | 56 | 240 | 2.0 | 3.0 | 0.05 | 0.10 | 0.10 | 98 | 1009.9 |
| 20260506205626 | 56 | 222 | 1.0 | 5.0 | 0.05 | 0.10 | 0.10 | 98 | 1010.1 |
| 20260506205120 | 56 | 290 | 2.0 | 3.0 | 0.07 | 0.09 | 0.09 | 98 | 1010.1 |
| 20260506204619 | 56 | 321 | 0.0 | 3.0 | 0.00 | 0.08 | 0.08 | 98 | 1010.0 |
| 20260506204115 | 56 | 232 | 2.0 | 3.0 | 0.00 | 0.08 | 0.08 | 97 | 1010.0 |
| 20260506203614 | 57 | 346 | 1.0 | 2.0 | 0.07 | 0.08 | 0.08 | 97 | 1010.2 |
| 20260506203110 | 57 | 228 | 3.0 | 3.0 | 0.00 | 0.07 | 0.07 | 97 | 1010.1 |
| 20260506202608 | 57 | 309 | 3.0 | 6.0 | 0.00 | 0.07 | 0.07 | 97 | 1010.3 |
| 20260506202104 | 57 | 354 | 4.0 | 5.0 | 0.00 | 0.07 | 0.07 | 97 | 1010.3 |
| 20260506201601 | 57 | 275 | 4.0 | 5.0 | 0.00 | 0.07 | 0.07 | 97 | 1010.3 |
| 20260506201058 | 57 | 227 | 3.0 | 5.0 | 0.00 | 0.07 | 0.07 | 97 | 1010.3 |
| 20260506200554 | 57 | 195 | 1.0 | 3.0 | 0.00 | 0.07 | 0.07 | 97 | 1010.3 |
| 20260506200051 | 57 | 314 | 1.0 | 5.0 | 0.00 | 0.07 | 0.07 | 97 | 1010.4 |
| 20260506195547 | 57 | 329 | 3.0 | 5.0 | 0.00 | 0.07 | 0.07 | 97 | 1010.4 |
| 20260506195044 | 57 | 311 | 3.0 | 5.0 | 0.00 | 0.07 | 0.07 | 97 | 1010.7 |
| 20260506194543 | 57 | 235 | 1.0 | 3.0 | 0.00 | 0.07 | 0.07 | 97 | 1010.4 |
| 20260506194038 | 57 | 313 | 2.0 | 5.0 | 0.00 | 0.07 | 0.07 | 97 | 1010.7 |
| 20260506193536 | 57 | 315 | 3.0 | 5.0 | 0.00 | 0.07 | 0.07 | 97 | 1010.9 |
| 20260506193032 | 57 | 295 | 1.0 | 6.0 | 0.00 | 0.07 | 0.07 | 97 | 1010.9 |
| 20260506192529 | 56 | 325 | 1.0 | 6.0 | 0.00 | 0.07 | 0.07 | 97 | 1010.8 |
| 20260506192025 | 56 | 252 | 2.0 | 3.0 | 0.00 | 0.07 | 0.07 | 97 | 1010.9 |
| 20260506191522 | 56 | 230 | 3.0 | 5.0 | 0.00 | 0.07 | 0.07 | 97 | 1011.0 |
| 20260506191018 | 57 | 250 | 4.0 | 5.0 | 0.05 | 0.07 | 0.07 | 97 | 1010.9 |
| 20260506190515 | 57 | 230 | 4.0 | 6.0 | 0.05 | 0.07 | 0.07 | 96 | 1011.1 |
| 20260506190013 | 56 | 239 | 2.0 | 3.0 | 0.00 | 0.06 | 0.06 | 96 | 1010.9 |
| 20260506185510 | 57 | 282 | 4.0 | 6.0 | 0.00 | 0.06 | 0.06 | 96 | 1010.9 |
| 20260506185006 | 56 | 295 | 1.0 | 2.0 | 0.07 | 0.06 | 0.06 | 96 | 1011.1 |
| 20260506184504 | 56 | 119 | 2.0 | 3.0 | 0.05 | 0.05 | 0.05 | 96 | 1011.1 |
| 20260506184001 | 56 | 253 | 1.0 | 3.0 | 0.12 | 0.05 | 0.05 | 95 | 1011.1 |
| 20260506183456 | 57 | 253 | 2.0 | 5.0 | 0.00 | 0.03 | 0.03 | 95 | 1011.0 |
| 20260506182953 | 57 | 190 | 1.0 | 5.0 | 0.05 | 0.03 | 0.03 | 95 | 1010.9 |
| 20260506182450 | 57 | 186 | 1.0 | 5.0 | 0.05 | 0.03 | 0.03 | 94 | 1011.0 |
| 20260506181947 | 57 | 151 | 5.0 | 7.0 | 0.00 | 0.02 | 0.02 | 94 | 1011.2 |
| 20260506181445 | 57 | 293 | 2.0 | 5.0 | 0.07 | 0.02 | 0.02 | 94 | 1011.4 |
| 20260506180941 | 57 | 205 | 3.0 | 7.0 | 0.07 | 0.02 | 0.02 | 93 | 1011.4 |
| 20260506180438 | 57 | 186 | 3.0 | 5.0 | 0.00 | 0.01 | 0.01 | 93 | 1011.7 |
| 20260506175929 | 58 | 320 | 1.0 | 2.0 | 0.05 | 0.01 | 0.01 | 92 | 1011.7 |
| 20260506175426 | 58 | 154 | 3.0 | 5.0 | 0.05 | 0.01 | 0.01 | 91 | 1012.0 |
| 20260506174923 | 58 | 208 | 2.0 | 3.0 | 0.00 | 0.00 | 0.00 | 91 | 1012.1 |
| 20260506174421 | 59 | 288 | 2.0 | 2.0 | 0.00 | 0.00 | 0.00 | 89 | 1012.3 |
| 20260506173917 | 59 | 176 | 2.0 | 3.0 | 0.00 | 0.00 | 0.00 | 88 | 1012.1 |
| 20260506173414 | 59 | 197 | 4.0 | 6.0 | 0.00 | 0.00 | 0.00 | 88 | 1012.0 |
| 20260506172911 | 59 | 284 | 2.0 | 3.0 | 0.00 | 0.00 | 0.00 | 87 | 1012.2 |
| 20260506172408 | 59 | 256 | 1.0 | 3.0 | 0.00 | 0.00 | 0.00 | 86 | 1012.3 |
| 20260506171905 | 60 | 284 | 1.0 | 6.0 | 0.00 | 0.00 | 0.00 | 84 | 1012.5 |
| 20260506171402 | 60 | 296 | 2.0 | 5.0 | 0.00 | 0.00 | 0.00 | 83 | 1012.5 |
| 20260506170900 | 60 | 338 | 2.0 | 5.0 | 0.00 | 0.00 | 0.00 | 83 | 1012.7 |
| 20260506170355 | 60 | 227 | 2.0 | 5.0 | 0.00 | 0.00 | 0.00 | 83 | 1012.5 |
| 20260506165849 | 61 | 313 | 3.0 | 5.0 | 0.00 | 0.00 | 0.00 | 82 | 1012.5 |
| 20260506165347 | 61 | 320 | 1.0 | 6.0 | 0.00 | 0.00 | 0.00 | 82 | 1012.6 |
| 20260506164843 | 61 | 302 | 2.0 | 6.0 | 0.00 | 0.00 | 0.00 | 81 | 1012.6 |
| 20260506164339 | 61 | 341 | 3.0 | 6.0 | 0.00 | 0.00 | 0.00 | 81 | 1012.5 |
| 20260506163838 | 62 | 300 | 2.0 | 10.0 | 0.00 | 0.00 | 0.00 | 81 | 1012.7 |
| 20260506163332 | 62 | 185 | 5.0 | 7.0 | 0.00 | 0.00 | 0.00 | 80 | 1012.6 |
| 20260506162827 | 62 | 205 | 1.0 | 6.0 | 0.00 | 0.00 | 0.00 | 79 | 1012.3 |
| 20260506162325 | 62 | 136 | 3.0 | 3.0 | 0.00 | 0.00 | 0.00 | 80 | 1012.5 |
| 20260506161823 | 62 | 230 | 4.0 | 9.0 | 0.00 | 0.00 | 0.00 | 79 | 1012.8 |
| 20260506161319 | 62 | 220 | 3.0 | 7.0 | 0.00 | 0.00 | 0.00 | 79 | 1012.6 |
| 20260506160818 | 63 | 194 | 3.0 | 6.0 | 0.00 | 0.00 | 0.00 | 79 | 1012.8 |
| 20260506160314 | 62 | 214 | 5.0 | 8.0 | 0.00 | 0.00 | 0.00 | 79 | 1013.0 |
| 20260506155813 | 62 | 158 | 3.0 | 8.0 | 0.00 | 0.00 | 0.00 | 80 | 1012.9 |
| 20260506155309 | 62 | 186 | 2.0 | 3.0 | 0.00 | 0.00 | 0.00 | 80 | 1013.1 |
| 20260506153421 | 63 | 345 | 1.0 | 7.0 | 0.00 | 0.00 | 0.00 | 78 | 1013.1 |
| 20260506152918 | 64 | 193 | 4.0 | 14.0 | 0.00 | 0.00 | 0.00 | 77 | 1013.0 |
| 20260506152415 | 64 | 333 | 2.0 | 3.0 | 0.00 | 0.00 | 0.00 | 77 | 1013.0 |
| 20260506151914 | 64 | 239 | 3.0 | 8.0 | 0.00 | 0.00 | 0.00 | 77 | 1012.7 |
| 20260506151410 | 65 | 343 | 3.0 | 6.0 | 0.00 | 0.00 | 0.00 | 76 | 1013.0 |
| 20260506150908 | 65 | 222 | 2.0 | 3.0 | 0.00 | 0.00 | 0.00 | 75 | 1013.0 |
| 20260506150404 | 66 | 314 | 1.0 | 6.0 | 0.00 | 0.00 | 0.00 | 74 | 1013.2 |
| 20260506145901 | 66 | 261 | 3.0 | 5.0 | 0.00 | 0.00 | 0.00 | 74 | 1013.0 |
| 20260506145357 | 66 | 191 | 2.0 | 5.0 | 0.00 | 0.00 | 0.00 | 74 | 1013.1 |
| 20260506144855 | 66 | 247 | 5.0 | 6.0 | 0.00 | 0.00 | 0.00 | 74 | 1013.2 |
| 20260506144351 | 65 | 173 | 3.0 | 8.0 | 0.00 | 0.00 | 0.00 | 76 | 1013.0 |
| 20260506143850 | 65 | 156 | 3.0 | 6.0 | 0.00 | 0.00 | 0.00 | 74 | 1013.2 |
| 20260506143346 | 65 | 215 | 5.0 | 8.0 | 0.00 | 0.00 | 0.00 | 73 | 1013.5 |
| 20260506142845 | 65 | 232 | 3.0 | 6.0 | 0.00 | 0.00 | 0.00 | 76 | 1013.2 |
| 20260506142342 | 64 | 239 | 3.0 | 8.0 | 0.00 | 0.00 | 0.00 | 77 | 1013.3 |
| 20260506141840 | 64 | 193 | 4.0 | 5.0 | 0.00 | 0.00 | 0.00 | 75 | 1013.3 |
| 20260506141338 | 65 | 187 | 1.0 | 8.0 | 0.00 | 0.00 | 0.00 | 76 | 1013.4 |
| 20260506140836 | 64 | 312 | 1.0 | 5.0 | 0.00 | 0.00 | 0.00 | 76 | 1013.2 |
| 20260506140332 | 64 | 1 | 3.0 | 5.0 | 0.00 | 0.00 | 0.00 | 76 | 1013.3 |
| 20260506135829 | 64 | 300 | 5.0 | 6.0 | 0.00 | 0.00 | 0.00 | 77 | 1013.1 |
| 20260506135326 | 64 | 233 | 5.0 | 7.0 | 0.00 | 0.00 | 0.00 | 76 | 1013.3 |
| 20260506134822 | 64 | 276 | 5.0 | 6.0 | 0.00 | 0.00 | 0.00 | 76 | 1013.2 |
| 20260506134319 | 63 | 219 | 2.0 | 5.0 | 0.00 | 0.00 | 0.00 | 78 | 1013.1 |
| 20260506133816 | 62 | 354 | 2.0 | 7.0 | 0.00 | 0.00 | 0.00 | 79 | 1012.9 |
| 20260506133313 | 62 | 249 | 2.0 | 6.0 | 0.00 | 0.00 | 0.00 | 79 | 1013.0 |
| 20260506132809 | 63 | 170 | 3.0 | 6.0 | 0.00 | 0.00 | 0.00 | 78 | 1013.1 |
| 20260506132307 | 63 | 297 | 2.0 | 6.0 | 0.00 | 0.00 | 0.00 | 78 | 1012.9 |
| 20260506131805 | 63 | 214 | 1.0 | 7.0 | 0.00 | 0.00 | 0.00 | 79 | 1013.1 |
| 20260506131300 | 62 | 232 | 2.0 | 6.0 | 0.00 | 0.00 | 0.00 | 79 | 1013.0 |
| 20260506130757 | 62 | 310 | 3.0 | 7.0 | 0.00 | 0.00 | 0.00 | 80 | 1013.2 |
| 20260506130254 | 62 | 317 | 4.0 | 7.0 | 0.00 | 0.00 | 0.00 | 79 | 1013.2 |
| 20260506125752 | 62 | 161 | 1.0 | 6.0 | 0.00 | 0.00 | 0.00 | 79 | 1013.1 |
| 20260506125250 | 62 | 246 | 3.0 | 6.0 | 0.00 | 0.00 | 0.00 | 80 | 1013.3 |
| 20260506124748 | 62 | 256 | 4.0 | 7.0 | 0.00 | 0.00 | 0.00 | 79 | 1013.4 |
| 20260506124245 | 62 | 333 | 2.0 | 7.0 | 0.00 | 0.00 | 0.00 | 80 | 1013.5 |
| 20260506123743 | 62 | 310 | 2.0 | 6.0 | 0.00 | 0.00 | 0.00 | 81 | 1013.6 |
| 20260506123242 | 61 | 317 | 3.0 | 6.0 | 0.00 | 0.00 | 0.00 | 82 | 1013.6 |
| 20260506122738 | 61 | 225 | 3.0 | 7.0 | 0.00 | 0.00 | 0.00 | 82 | 1013.4 |
| 20260506122235 | 60 | 290 | 2.0 | 7.0 | 0.00 | 0.00 | 0.00 | 83 | 1013.5 |
| 20260506121733 | 60 | 256 | 6.0 | 8.0 | 0.00 | 0.00 | 0.00 | 84 | 1013.4 |
| 20260506121229 | 59 | 306 | 5.0 | 6.0 | 0.00 | 0.00 | 0.00 | 85 | 1013.4 |
| 20260506120727 | 59 | 274 | 1.0 | 7.0 | 0.00 | 0.00 | 0.00 | 86 | 1013.5 |
| 20260506120225 | 59 | 297 | 1.0 | 5.0 | 0.00 | 0.00 | 0.00 | 86 | 1013.5 |
| 20260506115722 | 59 | 317 | 2.0 | 5.0 | 0.00 | 0.00 | 0.00 | 86 | 1013.6 |
| 20260506115220 | 59 | 310 | 5.0 | 9.0 | 0.00 | 0.00 | 0.00 | 87 | 1013.3 |
| 20260506114718 | 59 | 179 | 2.0 | 6.0 | 0.00 | 0.00 | 0.00 | 87 | 1013.6 |
| 20260506114215 | 59 | 316 | 3.0 | 3.0 | 0.00 | 0.00 | 0.00 | 87 | 1013.4 |
| 20260506113713 | 59 | 303 | 3.0 | 9.0 | 0.00 | 0.00 | 0.00 | 87 | 1013.5 |
| 20260506113211 | 59 | 309 | 2.0 | 3.0 | 0.00 | 0.00 | 0.00 | 88 | 1013.6 |
| 20260506112707 | 58 | 210 | 5.0 | 6.0 | 0.00 | 0.00 | 0.00 | 89 | 1013.7 |
| 20260506112205 | 57 | 259 | 1.0 | 7.0 | 0.00 | 0.00 | 0.00 | 90 | 1013.6 |
| 20260506111702 | 57 | 236 | 4.0 | 7.0 | 0.00 | 0.00 | 0.00 | 90 | 1013.7 |
| 20260506111159 | 57 | 249 | 2.0 | 5.0 | 0.00 | 0.00 | 0.00 | 91 | 1013.8 |
| 20260506110656 | 57 | 240 | 2.0 | 5.0 | 0.00 | 0.00 | 0.00 | 91 | 1013.7 |
| 20260506110154 | 57 | 311 | 3.0 | 5.0 | 0.00 | 0.00 | 0.00 | 91 | 1013.5 |
| 20260506105650 | 56 | 237 | 1.0 | 5.0 | 0.00 | 0.00 | 0.00 | 92 | 1013.6 |
| 20260506105147 | 56 | 27 | 1.0 | 3.0 | 0.00 | 0.00 | 0.00 | 92 | 1013.7 |
| 20260506104646 | 56 | 215 | 3.0 | 6.0 | 0.00 | 0.00 | 0.00 | 92 | 1013.7 |
| 20260506104143 | 56 | 234 | 2.0 | 3.0 | 0.00 | 0.00 | 0.00 | 93 | 1013.6 |
| 20260506103640 | 56 | 214 | 2.0 | 5.0 | 0.00 | 0.00 | 0.00 | 93 | 1013.7 |
| 20260506103137 | 56 | 234 | 2.0 | 5.0 | 0.00 | 0.00 | 0.00 | 93 | 1013.7 |
| 20260506102635 | 56 | 154 | 2.0 | 7.0 | 0.00 | 0.00 | 0.00 | 93 | 1013.7 |
| 20260506102132 | 55 | 251 | 2.0 | 5.0 | 0.00 | 0.00 | 0.00 | 93 | 1013.5 |
| 20260506101629 | 55 | 272 | 2.0 | 6.0 | 0.00 | 0.00 | 0.00 | 93 | 1013.5 |
| 20260506101125 | 55 | 199 | 2.0 | 3.0 | 0.00 | 0.00 | 0.00 | 93 | 1013.5 |
| 20260506100624 | 55 | 254 | 3.0 | 6.0 | 0.00 | 0.00 | 0.00 | 92 | 1013.6 |
| 20260506100121 | 56 | 252 | 3.0 | 3.0 | 0.00 | 0.00 | 0.00 | 92 | 1013.6 |
| 20260506095620 | 55 | 195 | 2.0 | 5.0 | 0.00 | 0.00 | 0.00 | 92 | 1013.6 |
| 20260506095116 | 56 | 237 | 1.0 | 5.0 | 0.00 | 0.00 | 0.00 | 92 | 1013.6 |
| 20260506094614 | 56 | 282 | 3.0 | 3.0 | 0.00 | 0.00 | 0.00 | 92 | 1013.6 |
| 20260506094111 | 56 | 251 | 1.0 | 5.0 | 0.00 | 0.00 | 0.00 | 92 | 1013.2 |
| 20260506093610 | 56 | 273 | 1.0 | 2.0 | 0.00 | 0.00 | 0.00 | 91 | 1013.4 |
| 20260506093107 | 56 | 339 | 2.0 | 6.0 | 0.00 | 0.00 | 0.00 | 91 | 1013.4 |
| 20260506092605 | 56 | 246 | 2.0 | 3.0 | 0.00 | 0.00 | 0.00 | 91 | 1013.4 |
| 20260506092101 | 56 | 275 | 1.0 | 5.0 | 0.00 | 0.00 | 0.00 | 91 | 1013.3 |
| 20260506091600 | 56 | 248 | 3.0 | 5.0 | 0.00 | 0.00 | 0.00 | 91 | 1013.6 |
| 20260506091057 | 56 | 238 | 1.0 | 5.0 | 0.00 | 0.00 | 0.00 | 91 | 1013.6 |
| 20260506090554 | 56 | 245 | 1.0 | 3.0 | 0.00 | 0.00 | 0.00 | 90 | 1013.5 |
| 20260506090050 | 56 | 228 | 4.0 | 7.0 | 0.00 | 0.00 | 0.00 | 90 | 1013.6 |
| 20260506085547 | 56 | 184 | 2.0 | 3.0 | 0.00 | 0.00 | 0.00 | 90 | 1013.9 |
| 20260506085044 | 56 | 335 | 3.0 | 6.0 | 0.00 | 0.00 | 0.00 | 90 | 1013.7 |
| 20260506084541 | 56 | 234 | 2.0 | 7.0 | 0.00 | 0.00 | 0.00 | 90 | 1013.7 |
| 20260506084037 | 56 | 213 | 3.0 | 5.0 | 0.00 | 0.00 | 0.00 | 90 | 1013.6 |
| 20260506083534 | 56 | 250 | 3.0 | 6.0 | 0.00 | 0.00 | 0.00 | 89 | 1013.7 |
| 20260506083032 | 56 | 179 | 4.0 | 6.0 | 0.00 | 0.00 | 0.00 | 89 | 1013.7 |
| 20260506082528 | 56 | 230 | 2.0 | 5.0 | 0.00 | 0.00 | 0.00 | 89 | 1013.6 |
| 20260506082024 | 56 | 309 | 1.0 | 3.0 | 0.00 | 0.00 | 0.00 | 89 | 1013.8 |
| 20260506081522 | 57 | 224 | 2.0 | 6.0 | 0.00 | 0.00 | 0.00 | 89 | 1013.7 |
| 20260506081020 | 56 | 228 | 1.0 | 6.0 | 0.00 | 0.00 | 0.00 | 89 | 1013.7 |
| 20260506080517 | 56 | 236 | 1.0 | 2.0 | 0.00 | 0.00 | 0.00 | 89 | 1014.0 |
| 20260506073500 | 57 | 70 | 1.0 | 3.0 | 0.00 | 0.00 | 0.00 | 88 | 1013.9 |
| 20260506072957 | 57 | 247 | 2.0 | 5.0 | 0.00 | 0.00 | 0.00 | 87 | 1013.9 |
| 20260506072454 | 57 | 232 | 3.0 | 5.0 | 0.00 | 0.00 | 0.00 | 87 | 1013.8 |
| 20260506071952 | 57 | 185 | 2.0 | 3.0 | 0.00 | 0.00 | 0.00 | 87 | 1013.9 |
| 20260506071450 | 57 | 231 | 4.0 | 8.0 | 0.00 | 0.00 | 0.00 | 87 | 1014.0 |
| 20260506070947 | 57 | 251 | 2.0 | 3.0 | 0.00 | 0.00 | 0.00 | 87 | 1013.9 |
| 20260506070444 | 57 | 201 | 3.0 | 3.0 | 0.00 | 0.00 | 0.00 | 86 | 1013.7 |
| 20260506062422 | 57 | 282 | 1.0 | 5.0 | 0.00 | 0.00 | 0.00 | 85 | 1013.6 |
| 20260506061917 | 58 | 177 | 3.0 | 5.0 | 0.00 | 0.00 | 0.00 | 85 | 1014.0 |
| 20260506061414 | 58 | 194 | 3.0 | 6.0 | 0.00 | 0.00 | 0.00 | 84 | 1013.9 |
| 20260506060912 | 58 | 324 | 2.0 | 7.0 | 0.00 | 0.00 | 0.00 | 84 | 1013.9 |
| 20260506060410 | 58 | 274 | 0.0 | 5.0 | 0.00 | 0.00 | 0.00 | 84 | 1014.2 |
| 20260506051342 | 58 | 240 | 3.0 | 5.0 | 0.00 | 0.00 | 0.00 | 83 | 1014.2 |
| 20260506050839 | 59 | 3 | 4.0 | 7.0 | 0.00 | 0.00 | 0.00 | 82 | 1014.4 |
| 20260506050336 | 59 | 280 | 2.0 | 3.0 | 0.00 | 0.00 | 0.00 | 83 | 1014.5 |
| 20260506044827 | 59 | 269 | 2.0 | 7.0 | 0.00 | 0.00 | 0.00 | 82 | 1014.4 |
| 20260506044325 | 59 | 233 | 6.0 | 9.0 | 0.00 | 0.00 | 0.00 | 82 | 1014.5 |
| 20260506043821 | 59 | 255 | 1.0 | 3.0 | 0.00 | 0.00 | 0.00 | 82 | 1014.4 |
| 20260506043319 | 59 | 192 | 3.0 | 8.0 | 0.00 | 0.00 | 0.00 | 81 | 1014.4 |
| 20260506042817 | 59 | 297 | 5.0 | 7.0 | 0.00 | 0.00 | 0.00 | 82 | 1014.3 |
| 20260506042316 | 59 | 305 | 6.0 | 10.0 | 0.00 | 0.00 | 0.00 | 81 | 1014.4 |
| 20260506041814 | 59 | 131 | 6.0 | 7.0 | 0.00 | 0.00 | 0.00 | 81 | 1014.6 |
| 20260506041311 | 59 | 259 | 5.0 | 6.0 | 0.00 | 0.00 | 0.00 | 81 | 1014.5 |
| 20260506040808 | 59 | 219 | 4.0 | 6.0 | 0.00 | 0.00 | 0.00 | 81 | 1014.5 |
| 20260506040305 | 59 | 190 | 3.0 | 5.0 | 0.00 | 0.00 | 0.00 | 81 | 1014.7 |
| 20260506035801 | 59 | 260 | 3.0 | 6.0 | 0.00 | 0.00 | 0.00 | 80 | 1014.5 |
| 20260506035259 | 59 | 305 | 6.0 | 11.0 | 0.00 | 0.00 | 0.00 | 80 | 1014.6 |
| 20260506034756 | 59 | 193 | 3.0 | 3.0 | 0.00 | 0.00 | 0.00 | 80 | 1014.6 |
| 20260506034253 | 60 | 224 | 2.0 | 6.0 | 0.00 | 0.00 | 0.00 | 79 | 1014.5 |
| 20260506033749 | 60 | 235 | 3.0 | 10.0 | 0.00 | 0.00 | 0.00 | 78 | 1014.4 |
| 20260506033247 | 60 | 259 | 1.0 | 6.0 | 0.00 | 0.00 | 0.00 | 78 | 1014.8 |
| 20260506032744 | 60 | 265 | 3.0 | 6.0 | 0.00 | 0.00 | 0.00 | 78 | 1014.6 |
| 20260506032241 | 60 | 241 | 3.0 | 6.0 | 0.00 | 0.00 | 0.00 | 77 | 1014.6 |
| 20260506031737 | 60 | 267 | 2.0 | 5.0 | 0.00 | 0.00 | 0.00 | 76 | 1014.8 |
| 20260506031235 | 60 | 156 | 1.0 | 7.0 | 0.00 | 0.00 | 0.00 | 76 | 1014.5 |
| 20260506030733 | 60 | 183 | 4.0 | 5.0 | 0.00 | 0.00 | 0.00 | 75 | 1014.4 |
| 20260506030230 | 61 | 329 | 2.0 | 3.0 | 0.00 | 0.00 | 0.00 | 74 | 1014.6 |
| 20260506025721 | 61 | 309 | 3.0 | 7.0 | 0.00 | 0.00 | 0.00 | 74 | 1014.4 |
| 20260506025218 | 61 | 228 | 3.0 | 5.0 | 0.00 | 0.00 | 0.00 | 73 | 1014.7 |
| 20260506024715 | 61 | 249 | 4.0 | 6.0 | 0.00 | 0.00 | 0.00 | 73 | 1014.5 |
| 20260506024212 | 61 | 247 | 4.0 | 7.0 | 0.00 | 0.00 | 0.00 | 73 | 1014.6 |
| 20260506023708 | 61 | 205 | 3.0 | 5.0 | 0.00 | 0.00 | 0.00 | 73 | 1014.6 |
| 20260506023205 | 61 | 221 | 2.0 | 3.0 | 0.00 | 0.00 | 0.00 | 72 | 1014.5 |
| 20260506022702 | 61 | 236 | 2.0 | 6.0 | 0.00 | 0.00 | 0.00 | 73 | 1014.4 |
| 20260506022200 | 61 | 299 | 2.0 | 5.0 | 0.00 | 0.00 | 0.00 | 73 | 1014.4 |
| 20260506021658 | 61 | 185 | 5.0 | 8.0 | 0.00 | 0.00 | 0.00 | 74 | 1014.5 |
| 20260506021154 | 61 | 215 | 2.0 | 3.0 | 0.00 | 0.00 | 0.00 | 73 | 1014.5 |
| 20260506020651 | 61 | 165 | 3.0 | 6.0 | 0.00 | 0.00 | 0.00 | 73 | 1014.3 |
| 20260506020149 | 61 | 178 | 2.0 | 7.0 | 0.00 | 0.00 | 0.00 | 72 | 1014.5 |
| 20260506015646 | 61 | 218 | 4.0 | 5.0 | 0.00 | 0.00 | 0.00 | 73 | 1014.5 |
| 20260506015143 | 61 | 155 | 3.0 | 5.0 | 0.00 | 0.00 | 0.00 | 73 | 1014.3 |
| 20260506014641 | 61 | 250 | 3.0 | 7.0 | 0.00 | 0.00 | 0.00 | 73 | 1014.3 |